Montpelier, VT

7:20 PM EST on December 07, 2019 (GMT -0500)
Knapp State

Weather History for KMPV - November, 2019

Change the Weather History Date:

Friday, November 22, 2019

  Actual Average Record
Temperature  
Mean Temperature 36 °F 33 °F  
Max Temperature 46 °F 41 °F 67 °F (1953)
Min Temperature 26 °F 25 °F 0 °F (2018)
Degree Days  
Heating Degree Days 29 32  
Month to date heating degree days 787 618  
Since 1 July heating degree days 1634 1574  
Cooling Degree Days 0 0  
Month to date cooling degree days 0 0  
Year to date cooling degree days 220 264  
Moisture  
Dew Point 29 °F    
Average Humidity 77    
Maximum Humidity 89    
Minimum Humidity 60    
Precipitation  
Precipitation 0.02 in 0.11 in 0.74 in (1962)
Month to date precipitation 1.58 2.35  
Year to date precipitation 45.88 33.71  
Sea Level Pressure  
Sea Level Pressure 29.69 in    
Wind  
Wind Speed 9 mph ()    
Max Wind Speed 30 mph    
Max Gust Speed 45 mph    
Visibility 9.2 miles    
Events Rain , Snow    
T = Trace of Precipitation, MM = Missing Value Source: Averaged Metar Reports

Daily Weather History Graph

Daily Weather History Graph

Search for Another Location

Airport or City:

Astronomy

Nov. 22, 2019 Rise Set
Actual Time 6:54 AM EST 4:17 PM EST
Civil Twilight 6:22 AM EST 4:49 PM EST
Nautical Twilight 5:47 AM EST 5:25 PM EST
Astronomical Twilight 5:12 AM EST 5:59 PM EST
Moon 1:43 AM EST (11/22) 2:28 PM EST (11/22)
Length of Visible Light 10h 27m
Length of Day
9h 23m
Waning Crescent, 20% of the Moon is Illuminated
Nov 22
Waning Crescent
Nov 26
New
Dec 4
First Quarter
Dec 12
Full
Dec 18
Last Quarter

Hourly Weather History & Observations

Time (EST) Temp. Windchill Dew Point Humidity Pressure Visibility Wind Dir Wind Speed Gust Speed Precip Events Conditions
12:51 AM 35.1 °F 28.6 °F 30.0 °F 82% 29.87 in 10.0 mi SW 8.1 mph - 0.00 in   Overcast
1:51 AM 34.0 °F 28.8 °F 30.9 °F 89% 29.85 in 10.0 mi SSW 5.8 mph - 0.00 in   Overcast
2:51 AM 35.1 °F 27.4 °F 30.9 °F 85% 29.80 in 10.0 mi South 10.4 mph - 0.00 in   Overcast
3:51 AM 36.0 °F 33.3 °F 32.0 °F 86% 29.78 in 10.0 mi SSW 3.5 mph - N/A   Overcast
4:51 AM 37.0 °F 29.8 °F 33.1 °F 86% 29.74 in 10.0 mi South 10.4 mph - N/A   Overcast
5:09 AM 37.9 °F 32.1 °F 34.0 °F 86% 29.69 in 10.0 mi South 8.1 mph - N/A   Overcast
5:51 AM 37.9 °F 30.9 °F 34.0 °F 86% 29.72 in 10.0 mi SSE 10.4 mph - N/A   Overcast
6:51 AM 37.9 °F 31.5 °F 34.0 °F 86% 29.67 in 10.0 mi SSE 9.2 mph - N/A   Overcast
7:51 AM 39.0 °F 34.8 °F 36.0 °F 89% 29.66 in 10.0 mi South 5.8 mph - N/A   Overcast
8:51 AM 39.9 °F 35.1 °F 36.0 °F 86% 29.63 in 10.0 mi SSE 6.9 mph - N/A   Overcast
9:51 AM 39.9 °F 32.1 °F 36.0 °F 86% 29.59 in 10.0 mi South 13.8 mph - N/A   Overcast
11:29 AM 43.0 °F 37.7 °F 37.0 °F 80% 29.56 in 10.0 mi WSW 9.2 mph 21.9 mph 0.00 in Rain Light Rain
11:51 AM 43.0 °F 37.7 °F 36.0 °F 76% 29.59 in 10.0 mi West 9.2 mph - 0.00 in Rain Light Rain
12:51 PM 42.1 °F 37.7 °F 34.0 °F 73% 29.58 in 10.0 mi SW 6.9 mph - 0.01 in   Overcast
1:51 PM 39.9 °F 32.5 °F 30.9 °F 70% 29.58 in 10.0 mi WSW 12.7 mph 19.6 mph N/A   Mostly Cloudy
2:49 PM 39.2 °F 33.6 °F 30.2 °F 70% 29.56 in 10.0 mi West 8.1 mph 18.4 mph N/A   Overcast
2:51 PM 39.0 °F 33.4 °F 30.0 °F 70% 29.59 in 10.0 mi West 8.1 mph - N/A   Overcast
3:10 PM 39.0 °F 31.4 °F 30.0 °F 70% 29.55 in 10.0 mi West 12.7 mph 20.7 mph N/A   Overcast
3:51 PM 36.0 °F 26.3 °F 28.9 °F 76% 29.61 in 6.0 mi NNW 16.1 mph 24.2 mph 0.00 in Snow Light Snow
3:56 PM 34.0 °F 24.6 °F 30.0 °F 85% 29.58 in 2.5 mi NW 13.8 mph 24.2 mph 0.00 in Snow Light Snow
4:10 PM 34.0 °F 25.0 °F 30.9 °F 89% 29.59 in 3.0 mi WNW 12.7 mph 23.0 mph 0.01 in Snow Light Snow
4:51 PM 33.1 °F 20.3 °F 25.0 °F 72% 29.65 in 10.0 mi WNW 24.2 mph 36.8 mph 0.01 in   Mostly Cloudy
5:51 PM 30.9 °F 21.2 °F 21.9 °F 69% 29.73 in 10.0 mi NW 12.7 mph 29.9 mph 0.00 in   Overcast
6:37 PM 30.0 °F 17.9 °F 19.0 °F 64% 29.72 in 10.0 mi NW 18.4 mph 35.7 mph N/A   Overcast
6:51 PM 30.0 °F 16.3 °F 19.0 °F 64% 29.78 in 10.0 mi WNW 24.2 mph 36.8 mph N/A   Overcast
7:51 PM 28.0 °F 16.5 °F 19.9 °F 72% 29.80 in 5.0 mi WNW 15.0 mph 24.2 mph 0.00 in Snow Light Snow
8:51 PM 28.0 °F 14.9 °F 17.1 °F 63% 29.83 in 9.0 mi NW 19.6 mph 31.1 mph 0.00 in   Overcast
9:51 PM 28.0 °F 15.3 °F 16.0 °F 61% 29.85 in 10.0 mi WNW 18.4 mph 31.1 mph N/A   Mostly Cloudy
10:51 PM 27.0 °F 16.7 °F 15.1 °F 61% 29.86 in 10.0 mi WNW 11.5 mph 28.8 mph N/A   Mostly Cloudy